Home > Weather > Nantes > Past weeks

Flag for France Past Weather in Nantes, Pays de la Loire, France — Yesterday and Last 2 Weeks

Now
64 °F

Broken clouds.


Feels Like: 64 °F
Forecast: 60 / 71 °F
Wind: 5 mph from West

Location: Nantes Airport

Current Time: Jun 29, 2016 at 11:11:42 AM

Latest Report: Jun 29, 2016 at 10:30 AM


Visibility: N/A

Pressure: 30.01 "Hg

Humidity: 73%

Dew Point: 55 °F

Location of NantesLocation

Past Weather in Nantes — Graph

°F

Nantes Temperature Yesterday

Maximum temperature yesterday: 70 °F (at 12:30 PM)
Minimum temperature yesterday: 57 °F (at 12:30 AM)
Average temperature yesterday: 64 °F

High & Low Weather Summary for the Past Weeks

 TemperatureHumidityPressure
High81 °F (Jun 23, 5:30 PM)100% (Jun 15, 4:00 AM)30.36 "Hg (Jun 15, 4:00 AM)
Low46 °F (Jun 16, 6:30 AM)49% (Jun 16, 4:30 PM)29.53 "Hg (Jun 14, 7:34 PM)
Average62 °F83%30.02 "Hg
* Reported Jun 14 10:00 AM — Jun 29 10:00 AM, Nantes, Weather by CustomWeather, © 2016

Note: Actual official high and low records may vary slightly from our data, if they occured in-between our weather recording intervals... More about our weather records

Advertising

Nantes Weather History for the Previous 24 Hours

Scroll right to see more
 ConditionsComfort  
Time TempWeatherWind HumidityBarometerVisibility
10:00 AM
Wed, Jun 29
63 °FPartly sunny.5 mph73%30.01 "HgN/A
9:30 AM63 °FBroken clouds.3 mph77%30.04 "HgN/A
9:00 AM61 °FScattered clouds.No wind77%30.01 "HgN/A
8:30 AM59 °FScattered clouds.1 mph82%30.01 "HgN/A
8:00 AM57 °FPartly sunny.3 mph94%30.04 "HgN/A
7:30 AM57 °FPartly sunny.3 mph94%30.04 "HgN/A
7:00 AM57 °FPassing clouds.2 mph94%30.04 "HgN/A
6:30 AM57 °FPassing clouds.2 mph94%30.01 "HgN/A
6:00 AM57 °FPassing clouds.3 mph94%30.04 "HgN/A
5:30 AM55 °FPassing clouds.3 mph100%30.04 "HgN/A
5:00 AM55 °FFog.5 mph94%30.04 "HgN/A
4:30 AM57 °FPassing clouds.5 mph94%30.01 "HgN/A
4:00 AM57 °FPassing clouds.5 mph94%30.04 "HgN/A
3:30 AM59 °FOvercast.7 mph94%30.04 "HgN/A
3:00 AM59 °FOvercast.7 mph94%30.04 "HgN/A
2:30 AM59 °FPartly cloudy.7 mph100%30.04 "HgN/A
2:00 AM61 °FPassing clouds.7 mph94%30.04 "HgN/A
1:30 AM61 °FPassing clouds.8 mph100%30.04 "HgN/A
1:00 AM61 °FPassing clouds.7 mph100%30.04 "Hg3 mi
12:30 AM61 °FLight rain. Passing clouds.6 mph100%30.04 "Hg3 mi
12:00 AM63 °FPassing clouds.8 mph88%30.04 "HgN/A
11:30 PM
Tue, Jun 28
63 °FPassing clouds.8 mph88%30.04 "HgN/A
11:00 PM63 °FPartly sunny.8 mph88%30.04 "HgN/A
10:00 PM63 °FPartly sunny.8 mph83%30.04 "HgN/A
9:30 PM63 °FPartly sunny.8 mph83%30.04 "HgN/A
9:07 PM63 °FPartly sunny.10 mph77%30.04 "HgN/A
8:30 PM64 °FPartly sunny.13 mph73%30.04 "HgN/A
8:00 PM66 °FPassing clouds.12 mph68%30.04 "HgN/A
7:30 PM66 °FPassing clouds.15 mph68%30.04 "HgN/A
7:00 PM68 °FPassing clouds.13 mph64%30.04 "HgN/A
6:30 PM68 °FScattered clouds.14 mph64%30.04 "HgN/A
6:00 PM68 °FScattered clouds.12 mph73%30.04 "HgN/A
5:30 PM70 °FScattered clouds.14 mph64%30.04 "HgN/A
5:00 PM70 °FScattered clouds.14 mph69%30.04 "HgN/A
4:30 PM70 °FScattered clouds.16 mph69%30.04 "HgN/A
3:30 PM68 °FBroken clouds.9 mph78%30.04 "HgN/A
3:00 PM70 °FScattered clouds.8 mph73%30.07 "HgN/A
2:30 PM68 °FBroken clouds.9 mph73%30.07 "HgN/A
2:00 PM66 °FBroken clouds.9 mph73%30.07 "HgN/A
1:30 PM66 °FBroken clouds.9 mph73%30.07 "HgN/A
1:00 PM68 °FBroken clouds.10 mph69%30.07 "HgN/A
12:30 PM70 °FBroken clouds.12 mph64%30.09 "HgN/A
12:00 PM68 °FBroken clouds.10 mph69%30.09 "HgN/A
11:30 AM68 °FScattered clouds.9 mph69%30.09 "HgN/A
11:00 AM68 °FScattered clouds.9 mph73%30.09 "HgN/A
Weather by CustomWeather, © 2016

See weather overviewHow to use our weather pages